Volver al catálogo

COSMOS 2251 DEB

ActivoLEO
NORAD 34572·DEBRIS·🇷🇺 Russia

Lanzado Jun 16, 1993 desde Plesetsk Cosmodrome

Loading…

Próximos Pases (próximas 24 horas)

TLE

ActualizadoSource: Space-Track

Época: Sep 13, 2026, 06:01 UTC

1 34572U 93036VJ  26256.25126310  .00003417  00000-0  79705-3 0  9999
2 34572  74.0088 317.2086 0064710 323.0205 100.1393 14.53884025913639

Sigue COSMOS 2251 DEB en tiempo real con AllMySat

Download on the App Store